NORTHEAST SUFFOLK  -  Rip Current Statement Rip Current Statement        NORTHERN NASSAU  -  Rip Current Statement Rip Current Statement        NORTHERN QUEENS  -  Rip Current Statement Rip Current Statement     Air Quality Alert Air Quality Alert        NORTHWEST SUFFOLK  -  Rip Current Statement Rip Current Statement        SOUTHEAST SUFFOLK  -  Rip Current Statement Rip Current Statement        SOUTHERN NASSAU  -  Rip Current Statement Rip Current Statement        SOUTHERN QUEENS  -  Rip Current Statement Rip Current Statement     Air Quality Alert Air Quality Alert        SOUTHWEST SUFFOLK  -  Rip Current Statement Rip Current Statement      

Active alerts

Northern Queens
  Details for Northern Queens Rip Current Statement  +1 additional alert
Southern Queens
  Details for Southern Queens Rip Current Statement  +1 additional alert
Northern Nassau
  Details for Northern Nassau Rip Current Statement
Southern Nassau
  Details for Southern Nassau Rip Current Statement
Northwest Suffolk
  Details for Northwest Suffolk Rip Current Statement
Southwest Suffolk
  Details for Southwest Suffolk Rip Current Statement
Northeast Suffolk
  Details for Northeast Suffolk Rip Current Statement
Southeast Suffolk
  Details for Southeast Suffolk Rip Current Statement


WXM80 ListenWXM80 Stop

You find our weather info also at:

UK Metoffice

WeatherCloud

Weather Underground

Northeastern Weather Network

AWEKAS

Citizen Weather Observer Program (CWOP)

HAMweather, WeatherForYou, PWS Weather


Weather Underground History page Text

Daily Summary for May 25, 2017 Units:  Both    English   Metric
« Previous Day
Next Day »
Daily Weekly Monthly Yearly Custom
  High: Low: Average:
Temperature: 57.5 °F /  14.2 °C 55.7 °F /  13.2 °C 56.5 °F /  13.6 °C
Dew Point: 56.8 °F /  13.8 °C 52.8 °F /  11.6 °C 55.2 °F /  12.9 °C
Humidity: 98 % 85 % 95 %
Wind Speed: 6.5 mph /  10.5 km/h - 2.9 mph /  4.7 km/h
Wind Gust: 12.7 mph /  20.4 km/h - -
Wind:- - East
Pressure: 29.79 in /  1008.7 hPa 29.46 in /  997.5 hPa -
Precipitation: 0.48 in /  12.19 mm    
Historical Graphs
 
 
Tabular Data for May 25, 2017
Time Temperature Dew Point Pressure Wind Wind Speed Wind Gust Humidity Rainfall Rate (Hourly)
00:03 57.4 °F /  14.1 °C 52.9 °F /  11.6 °C 29.79 in /  1008.7 hPa ENE 1.2 mph /  1.9 km/h 3.5 mph /  5.6 km/h 85 % 0.00 in /  0 mm
00:08 57.4 °F /  14.1 °C 52.9 °F /  11.6 °C 29.79 in /  1008.7 hPa ENE 1.0 mph /  1.6 km/h 1.2 mph /  1.9 km/h 85 % 0.00 in /  0 mm
00:13 57.4 °F /  14.1 °C 52.9 °F /  11.6 °C 29.79 in /  1008.7 hPa East 0.1 mph /  0.2 km/h 1.2 mph /  1.9 km/h 85 % 0.00 in /  0 mm
00:18 57.3 °F /  14.1 °C 53.1 °F /  11.7 °C 29.79 in /  1008.7 hPa SE 0.2 mph /  0.3 km/h 1.2 mph /  1.9 km/h 86 % 0.00 in /  0 mm
00:23 57.3 °F /  14.1 °C 53.1 °F /  11.7 °C 29.79 in /  1008.7 hPa SE 0.4 mph /  0.6 km/h 1.2 mph /  1.9 km/h 86 % 0.00 in /  0 mm
00:28 57.3 °F /  14.1 °C 53.1 °F /  11.7 °C 29.79 in /  1008.7 hPa SE 0.9 mph /  1.4 km/h 2.3 mph /  3.7 km/h 86 % 0.00 in /  0 mm
00:33 57.3 °F /  14.1 °C 53.1 °F /  11.7 °C 29.79 in /  1008.7 hPa SE 0.3 mph /  0.5 km/h 2.3 mph /  3.7 km/h 86 % 0.00 in /  0 mm
00:38 57.3 °F /  14.1 °C 52.8 °F /  11.6 °C 29.79 in /  1008.7 hPa SE 0.2 mph /  0.3 km/h 1.2 mph /  1.9 km/h 85 % 0.00 in /  0 mm
00:43 57.2 °F /  14 °C 53.0 °F /  11.7 °C 29.79 in /  1008.7 hPa SE 0.6 mph /  1 km/h 2.3 mph /  3.7 km/h 86 % 0.00 in /  0 mm
00:48 57.2 °F /  14 °C 53.0 °F /  11.7 °C 29.78 in /  1008.4 hPa SE 0.4 mph /  0.6 km/h 1.2 mph /  1.9 km/h 86 % 0.00 in /  0 mm
00:53 57.1 °F /  13.9 °C 53.0 °F /  11.7 °C 29.78 in /  1008.4 hPa SE 0.5 mph /  0.8 km/h 1.2 mph /  1.9 km/h 86 % 0.00 in /  0 mm
00:58 57.1 °F /  13.9 °C 53.3 °F /  11.8 °C 29.78 in /  1008.4 hPa SE 0.8 mph /  1.3 km/h 2.3 mph /  3.7 km/h 87 % 0.00 in /  0 mm
01:03 57.1 °F /  13.9 °C 53.3 °F /  11.8 °C 29.78 in /  1008.4 hPa ESE 0.8 mph /  1.3 km/h 2.3 mph /  3.7 km/h 87 % 0.00 in /  0 mm
01:08 57.0 °F /  13.9 °C 53.2 °F /  11.8 °C 29.78 in /  1008.4 hPa East 0.4 mph /  0.6 km/h 1.2 mph /  1.9 km/h 87 % 0.00 in /  0 mm
01:13 57.0 °F /  13.9 °C 53.2 °F /  11.8 °C 29.78 in /  1008.4 hPa East 0.5 mph /  0.8 km/h 2.3 mph /  3.7 km/h 87 % 0.00 in /  0 mm
01:18 57.0 °F /  13.9 °C 53.2 °F /  11.8 °C 29.78 in /  1008.4 hPa East 0.6 mph /  1 km/h 2.3 mph /  3.7 km/h 87 % 0.00 in /  0 mm
01:23 56.9 °F /  13.8 °C 53.4 °F /  11.9 °C 29.77 in /  1008 hPa East 1.1 mph /  1.8 km/h 2.3 mph /  3.7 km/h 88 % 0.00 in /  0 mm
01:28 56.9 °F /  13.8 °C 53.4 °F /  11.9 °C 29.77 in /  1008 hPa East 0.9 mph /  1.4 km/h 2.3 mph /  3.7 km/h 88 % 0.00 in /  0 mm
01:33 56.9 °F /  13.8 °C 53.4 °F /  11.9 °C 29.77 in /  1008 hPa East 0.1 mph /  0.2 km/h 1.2 mph /  1.9 km/h 88 % 0.00 in /  0 mm
01:38 57.0 °F /  13.9 °C 53.5 °F /  11.9 °C 29.77 in /  1008 hPa East 0.2 mph /  0.3 km/h 1.2 mph /  1.9 km/h 88 % 0.00 in /  0 mm
01:43 56.9 °F /  13.8 °C 53.4 °F /  11.9 °C 29.77 in /  1008 hPa East 0.6 mph /  1 km/h 1.2 mph /  1.9 km/h 88 % 0.00 in /  0 mm
01:48 56.9 °F /  13.8 °C 53.4 °F /  11.9 °C 29.77 in /  1008 hPa East 0.2 mph /  0.3 km/h 1.2 mph /  1.9 km/h 88 % 0.00 in /  0 mm
01:53 57.0 °F /  13.9 °C 53.5 °F /  11.9 °C 29.77 in /  1008 hPa East 0.1 mph /  0.2 km/h   88 % 0.00 in /  0 mm
01:58 57.0 °F /  13.9 °C 53.5 °F /  11.9 °C 29.77 in /  1008 hPa Calm   1.2 mph /  1.9 km/h 88 % 0.00 in /  0 mm
02:03 57.0 °F /  13.9 °C 53.5 °F /  11.9 °C 29.76 in /  1007.7 hPa East 0.4 mph /  0.6 km/h 2.3 mph /  3.7 km/h 88 % 0.00 in /  0 mm
02:08 57.0 °F /  13.9 °C 53.5 °F /  11.9 °C 29.76 in /  1007.7 hPa East 0.3 mph /  0.5 km/h 1.2 mph /  1.9 km/h 88 % 0.00 in /  0 mm
02:13 57.0 °F /  13.9 °C 53.5 °F /  11.9 °C 29.76 in /  1007.7 hPa East 0.2 mph /  0.3 km/h 1.2 mph /  1.9 km/h 88 % 0.00 in /  0 mm
02:18 57.1 °F /  13.9 °C 53.6 °F /  12 °C 29.76 in /  1007.7 hPa East 0.2 mph /  0.3 km/h 1.2 mph /  1.9 km/h 88 % 0.00 in /  0 mm
02:23 57.0 °F /  13.9 °C 53.5 °F /  11.9 °C 29.76 in /  1007.7 hPa East 0.8 mph /  1.3 km/h 2.3 mph /  3.7 km/h 88 % 0.00 in /  0 mm
02:28 57.1 °F /  13.9 °C 53.6 °F /  12 °C 29.75 in /  1007.3 hPa East 1.1 mph /  1.8 km/h 2.0 mph /  3.2 km/h 88 % 0.00 in /  0 mm
02:33 57.1 °F /  13.9 °C 53.6 °F /  12 °C 29.75 in /  1007.3 hPa East 0.3 mph /  0.5 km/h 1.2 mph /  1.9 km/h 88 % 0.00 in /  0 mm
02:38 57.1 °F /  13.9 °C 53.6 °F /  12 °C 29.75 in /  1007.3 hPa East 1.0 mph /  1.6 km/h 3.5 mph /  5.6 km/h 88 % 0.00 in /  0 mm
02:43 57.2 °F /  14 °C 53.7 °F /  12.1 °C 29.75 in /  1007.3 hPa East 0.9 mph /  1.4 km/h 2.3 mph /  3.7 km/h 88 % 0.00 in /  0 mm
02:48 57.2 °F /  14 °C 53.7 °F /  12.1 °C 29.74 in /  1007 hPa East 1.3 mph /  2.1 km/h 3.5 mph /  5.6 km/h 88 % 0.00 in /  0 mm
02:54 57.3 °F /  14.1 °C 53.8 °F /  12.1 °C 29.74 in /  1007 hPa East 1.2 mph /  1.9 km/h 2.3 mph /  3.7 km/h 88 % 0.00 in /  0 mm
02:59 57.3 °F /  14.1 °C 53.8 °F /  12.1 °C 29.75 in /  1007.3 hPa East 0.5 mph /  0.8 km/h 2.3 mph /  3.7 km/h 88 % 0.00 in /  0 mm
03:04 57.3 °F /  14.1 °C 54.1 °F /  12.3 °C 29.74 in /  1007 hPa ESE 2.2 mph /  3.5 km/h 3.5 mph /  5.6 km/h 89 % 0.00 in /  0 mm
03:09 57.4 °F /  14.1 °C 54.2 °F /  12.3 °C 29.74 in /  1007 hPa ESE 1.1 mph /  1.8 km/h 2.3 mph /  3.7 km/h 89 % 0.00 in /  0 mm
03:14 57.4 °F /  14.1 °C 54.2 °F /  12.3 °C 29.74 in /  1007 hPa East 1.6 mph /  2.6 km/h 2.3 mph /  3.7 km/h 89 % 0.00 in /  0 mm
03:19 57.5 °F /  14.2 °C 54.3 °F /  12.4 °C 29.74 in /  1007 hPa East 1.2 mph /  1.9 km/h 2.3 mph /  3.7 km/h 89 % 0.00 in /  0 mm
03:24 57.5 °F /  14.2 °C 54.3 °F /  12.4 °C 29.74 in /  1007 hPa ESE 0.7 mph /  1.1 km/h 3.5 mph /  5.6 km/h 89 % 0.00 in /  0 mm
03:29 57.5 °F /  14.2 °C 54.3 °F /  12.4 °C 29.74 in /  1007 hPa East 1.0 mph /  1.6 km/h 2.3 mph /  3.7 km/h 89 % 0.00 in /  0 mm
03:34 57.5 °F /  14.2 °C 54.3 °F /  12.4 °C 29.74 in /  1007 hPa East 0.9 mph /  1.4 km/h 2.3 mph /  3.7 km/h 89 % 0.00 in /  0 mm
03:39 57.5 °F /  14.2 °C 54.3 °F /  12.4 °C 29.74 in /  1007 hPa ESE 2.2 mph /  3.5 km/h 4.6 mph /  7.4 km/h 89 % 0.00 in /  0 mm
03:44 57.5 °F /  14.2 °C 54.3 °F /  12.4 °C 29.74 in /  1007 hPa ESE 2.0 mph /  3.2 km/h 3.5 mph /  5.6 km/h 89 % 0.00 in /  0 mm
03:49 57.5 °F /  14.2 °C 54.3 °F /  12.4 °C 29.73 in /  1006.7 hPa ENE 1.4 mph /  2.3 km/h 3.5 mph /  5.6 km/h 89 % 0.00 in /  0 mm
03:54 57.5 °F /  14.2 °C 54.3 °F /  12.4 °C 29.73 in /  1006.7 hPa East 1.3 mph /  2.1 km/h 2.3 mph /  3.7 km/h 89 % 0.00 in /  0 mm
03:59 57.4 °F /  14.1 °C 54.2 °F /  12.3 °C 29.73 in /  1006.7 hPa ESE 1.9 mph /  3.1 km/h 4.6 mph /  7.4 km/h 89 % 0.00 in /  0 mm
04:04 57.4 °F /  14.1 °C 54.2 °F /  12.3 °C 29.73 in /  1006.7 hPa East 1.6 mph /  2.6 km/h 2.3 mph /  3.7 km/h 89 % 0.00 in /  0 mm
04:09 57.4 °F /  14.1 °C 54.2 °F /  12.3 °C 29.73 in /  1006.7 hPa East 1.4 mph /  2.3 km/h 2.3 mph /  3.7 km/h 89 % 0.00 in /  0 mm
04:15 57.4 °F /  14.1 °C 54.5 °F /  12.5 °C 29.72 in /  1006.3 hPa ENE 1.0 mph /  1.6 km/h 3.0 mph /  4.8 km/h 90 % 0.00 in /  0 mm
04:20 57.4 °F /  14.1 °C 54.5 °F /  12.5 °C 29.72 in /  1006.3 hPa ENE 2.1 mph /  3.4 km/h 3.5 mph /  5.6 km/h 90 % 0.00 in /  0 mm
04:25 57.3 °F /  14.1 °C 54.4 °F /  12.4 °C 29.72 in /  1006.3 hPa ENE 1.9 mph /  3.1 km/h 3.0 mph /  4.8 km/h 90 % 0.00 in /  0 mm
04:30 57.2 °F /  14 °C 54.6 °F /  12.6 °C 29.72 in /  1006.3 hPa ENE 2.4 mph /  3.9 km/h 3.5 mph /  5.6 km/h 91 % 0.00 in /  0 mm
04:35 57.1 °F /  13.9 °C 54.2 °F /  12.3 °C 29.72 in /  1006.3 hPa ENE 2.2 mph /  3.5 km/h 3.5 mph /  5.6 km/h 90 % 0.00 in /  0 mm
04:40 57.0 °F /  13.9 °C 54.4 °F /  12.4 °C 29.72 in /  1006.3 hPa ENE 2.5 mph /  4 km/h 3.5 mph /  5.6 km/h 91 % 0.00 in /  0 mm
04:45 57.0 °F /  13.9 °C 54.4 °F /  12.4 °C 29.72 in /  1006.3 hPa ENE 2.5 mph /  4 km/h 4.0 mph /  6.4 km/h 91 % 0.00 in /  0 mm
04:50 56.9 °F /  13.8 °C 54.3 °F /  12.4 °C 29.72 in /  1006.3 hPa ENE 3.4 mph /  5.5 km/h 5.8 mph /  9.3 km/h 91 % 0.00 in /  0 mm
04:55 56.8 °F /  13.8 °C 54.5 °F /  12.5 °C 29.71 in /  1006 hPa ENE 3.4 mph /  5.5 km/h 4.6 mph /  7.4 km/h 92 % 0.00 in /  0 mm
05:00 56.7 °F /  13.7 °C 54.4 °F /  12.4 °C 29.72 in /  1006.3 hPa ENE 2.3 mph /  3.7 km/h 4.0 mph /  6.4 km/h 92 % 0.00 in /  0 mm
05:05 56.6 °F /  13.7 °C 54.3 °F /  12.4 °C 29.72 in /  1006.3 hPa ENE 2.9 mph /  4.7 km/h 4.0 mph /  6.4 km/h 92 % 0.01 in /  0.25 mm
05:10 56.5 °F /  13.6 °C 54.5 °F /  12.5 °C 29.71 in /  1006 hPa ENE 2.4 mph /  3.9 km/h 4.0 mph /  6.4 km/h 93 % 0.01 in /  0.25 mm
05:15 56.4 °F /  13.6 °C 54.4 °F /  12.4 °C 29.72 in /  1006.3 hPa ENE 2.6 mph /  4.2 km/h 3.5 mph /  5.6 km/h 93 % 0.01 in /  0.25 mm
05:21 56.3 °F /  13.5 °C 54.3 °F /  12.4 °C 29.72 in /  1006.3 hPa East 2.2 mph /  3.5 km/h 3.5 mph /  5.6 km/h 93 % 0.01 in /  0.25 mm
05:26 56.3 °F /  13.5 °C 54.3 °F /  12.4 °C 29.72 in /  1006.3 hPa East 2.0 mph /  3.2 km/h 3.5 mph /  5.6 km/h 93 % 0.01 in /  0.25 mm
05:31 56.3 °F /  13.5 °C 54.6 °F /  12.6 °C 29.72 in /  1006.3 hPa East 2.2 mph /  3.5 km/h 3.5 mph /  5.6 km/h 94 % 0.01 in /  0.25 mm
05:36 56.3 °F /  13.5 °C 54.6 °F /  12.6 °C 29.72 in /  1006.3 hPa East 2.2 mph /  3.5 km/h 4.6 mph /  7.4 km/h 94 % 0.01 in /  0.25 mm
05:40 56.3 °F /  13.5 °C 54.6 °F /  12.6 °C 29.72 in /  1006.3 hPa East 2.5 mph /  4 km/h 4.6 mph /  7.4 km/h 94 % 0.01 in /  0.25 mm
05:51 56.1 °F /  13.4 °C 54.4 °F /  12.4 °C 29.72 in /  1006.3 hPa ENE 2.0 mph /  3.2 km/h 5.0 mph /  8 km/h 94 % 0.00 in /  0 mm
05:56 56.0 °F /  13.3 °C 54.3 °F /  12.4 °C 29.72 in /  1006.3 hPa ENE 3.0 mph /  4.8 km/h 5.0 mph /  8 km/h 94 % 0.00 in /  0 mm
06:01 56.0 °F /  13.3 °C 54.3 °F /  12.4 °C 29.71 in /  1006 hPa East 2.2 mph /  3.5 km/h 3.5 mph /  5.6 km/h 94 % 0.02 in /  0.51 mm
06:06 56.0 °F /  13.3 °C 54.6 °F /  12.6 °C 29.71 in /  1006 hPa ENE 2.0 mph /  3.2 km/h 5.0 mph /  8 km/h 95 % 0.00 in /  0 mm
06:11 55.9 °F /  13.3 °C 54.5 °F /  12.5 °C 29.70 in /  1005.6 hPa ENE 3.0 mph /  4.8 km/h 6.0 mph /  9.7 km/h 95 % 0.00 in /  0 mm
06:16 55.9 °F /  13.3 °C 54.5 °F /  12.5 °C 29.70 in /  1005.6 hPa ENE 5.0 mph /  8 km/h 12.0 mph /  19.3 km/h 95 % 0.00 in /  0 mm
06:21 55.8 °F /  13.2 °C 54.4 °F /  12.4 °C 29.70 in /  1005.6 hPa ENE 3.0 mph /  4.8 km/h 8.0 mph /  12.9 km/h 95 % 0.00 in /  0 mm
06:26 55.9 °F /  13.3 °C 54.5 °F /  12.5 °C 29.70 in /  1005.6 hPa East 3.5 mph /  5.6 km/h 5.0 mph /  8 km/h 95 % 0.02 in /  0.51 mm
06:30 55.8 °F /  13.2 °C 54.4 °F /  12.4 °C 29.70 in /  1005.6 hPa ENE 4.4 mph /  7.1 km/h 7.0 mph /  11.3 km/h 95 % 0.02 in /  0.51 mm
06:35 55.9 °F /  13.3 °C 54.5 °F /  12.5 °C 29.69 in /  1005.3 hPa East 4.2 mph /  6.8 km/h 5.8 mph /  9.3 km/h 95 % 0.02 in /  0.51 mm
06:40 55.8 °F /  13.2 °C 54.4 °F /  12.4 °C 29.69 in /  1005.3 hPa East 5.0 mph /  8 km/h 5.8 mph /  9.3 km/h 95 % 0.02 in /  0.51 mm
06:45 55.8 °F /  13.2 °C 54.4 °F /  12.4 °C 29.69 in /  1005.3 hPa East 4.4 mph /  7.1 km/h 6.0 mph /  9.7 km/h 95 % 0.01 in /  0.25 mm
06:51 55.9 °F /  13.3 °C 54.5 °F /  12.5 °C 29.69 in /  1005.3 hPa East 2.8 mph /  4.5 km/h 5.0 mph /  8 km/h 95 % 0.01 in /  0.25 mm
06:56 55.8 °F /  13.2 °C 54.4 °F /  12.4 °C 29.69 in /  1005.3 hPa ENE 3.0 mph /  4.8 km/h 5.0 mph /  8 km/h 95 % 0.00 in /  0 mm
07:01 55.9 °F /  13.3 °C 54.8 °F /  12.7 °C 29.69 in /  1005.3 hPa ENE 3.4 mph /  5.5 km/h 5.8 mph /  9.3 km/h 96 % 0.01 in /  0.25 mm
07:05 55.9 °F /  13.3 °C 54.8 °F /  12.7 °C 29.69 in /  1005.3 hPa ENE 3.1 mph /  5 km/h 4.6 mph /  7.4 km/h 96 % 0.02 in /  0.51 mm
07:10 55.9 °F /  13.3 °C 54.8 °F /  12.7 °C 29.69 in /  1005.3 hPa East 3.9 mph /  6.3 km/h 5.8 mph /  9.3 km/h 96 % 0.02 in /  0.51 mm
07:15 55.9 °F /  13.3 °C 54.8 °F /  12.7 °C 29.69 in /  1005.3 hPa East 3.7 mph /  6 km/h 6.9 mph /  11.1 km/h 96 % 0.02 in /  0.51 mm
07:20 55.9 °F /  13.3 °C 54.8 °F /  12.7 °C 29.69 in /  1005.3 hPa East 3.3 mph /  5.3 km/h 3.5 mph /  5.6 km/h 96 % 0.01 in /  0.25 mm
07:25 55.9 °F /  13.3 °C 54.8 °F /  12.7 °C 29.69 in /  1005.3 hPa ENE 3.9 mph /  6.3 km/h 5.8 mph /  9.3 km/h 96 % 0.01 in /  0.25 mm
07:30 56.0 °F /  13.3 °C 54.9 °F /  12.7 °C 29.68 in /  1005 hPa East 4.0 mph /  6.4 km/h 8.1 mph /  13 km/h 96 % 0.01 in /  0.25 mm
07:35 56.0 °F /  13.3 °C 54.9 °F /  12.7 °C 29.68 in /  1005 hPa East 3.3 mph /  5.3 km/h 5.0 mph /  8 km/h 96 % 0.02 in /  0.51 mm
07:40 56.0 °F /  13.3 °C 54.9 °F /  12.7 °C 29.68 in /  1005 hPa East 4.2 mph /  6.8 km/h 5.8 mph /  9.3 km/h 96 % 0.02 in /  0.51 mm
07:41 56.0 °F /  13.3 °C 54.9 °F /  12.7 °C 29.68 in /  1005 hPa East 4.1 mph /  6.6 km/h 5.8 mph /  9.3 km/h 96 % 0.02 in /  0.51 mm
07:46 56.1 °F /  13.4 °C 55.0 °F /  12.8 °C 29.67 in /  1004.6 hPa East 4.0 mph /  6.4 km/h 5.8 mph /  9.3 km/h 96 % 0.03 in /  0.76 mm
07:51 56.1 °F /  13.4 °C 55.3 °F /  12.9 °C 29.68 in /  1005 hPa East 3.4 mph /  5.5 km/h 5.0 mph /  8 km/h 97 % 0.03 in /  0.76 mm
07:56 56.2 °F /  13.4 °C 55.4 °F /  13 °C 29.68 in /  1005 hPa East 3.2 mph /  5.1 km/h 4.6 mph /  7.4 km/h 97 % 0.03 in /  0.76 mm
08:01 56.2 °F /  13.4 °C 55.4 °F /  13 °C 29.68 in /  1005 hPa East 3.8 mph /  6.1 km/h 4.6 mph /  7.4 km/h 97 % 0.04 in /  1.02 mm
08:06 56.1 °F /  13.4 °C 55.3 °F /  12.9 °C 29.68 in /  1005 hPa East 4.0 mph /  6.4 km/h 5.8 mph /  9.3 km/h 97 % 0.03 in /  0.76 mm
08:12 56.2 °F /  13.4 °C 55.4 °F /  13 °C 29.68 in /  1005 hPa East 3.7 mph /  6 km/h 4.6 mph /  7.4 km/h 97 % 0.03 in /  0.76 mm
08:17 56.2 °F /  13.4 °C 55.4 °F /  13 °C 29.67 in /  1004.6 hPa East 2.8 mph /  4.5 km/h 5.0 mph /  8 km/h 97 % 0.04 in /  1.02 mm
08:22 56.2 °F /  13.4 °C 55.4 °F /  13 °C 29.67 in /  1004.6 hPa ENE 2.9 mph /  4.7 km/h 3.5 mph /  5.6 km/h 97 % 0.04 in /  1.02 mm
08:27 56.2 °F /  13.4 °C 55.4 °F /  13 °C 29.67 in /  1004.6 hPa ENE 2.5 mph /  4 km/h 4.0 mph /  6.4 km/h 97 % 0.05 in /  1.27 mm
08:32 56.2 °F /  13.4 °C 55.4 °F /  13 °C 29.66 in /  1004.3 hPa East 3.2 mph /  5.1 km/h 5.0 mph /  8 km/h 97 % 0.04 in /  1.02 mm
08:37 56.3 °F /  13.5 °C 55.5 °F /  13.1 °C 29.65 in /  1003.9 hPa ENE 4.1 mph /  6.6 km/h 7.0 mph /  11.3 km/h 97 % 0.04 in /  1.02 mm
08:42 56.3 °F /  13.5 °C 55.5 °F /  13.1 °C 29.65 in /  1003.9 hPa ENE 3.9 mph /  6.3 km/h 4.6 mph /  7.4 km/h 97 % 0.05 in /  1.27 mm
08:47 56.4 °F /  13.6 °C 55.6 °F /  13.1 °C 29.66 in /  1004.3 hPa East 3.6 mph /  5.8 km/h 5.8 mph /  9.3 km/h 97 % 0.04 in /  1.02 mm
08:52 56.4 °F /  13.6 °C 55.6 °F /  13.1 °C 29.65 in /  1003.9 hPa East 5.0 mph /  8 km/h 6.9 mph /  11.1 km/h 97 % 0.04 in /  1.02 mm
08:57 56.3 °F /  13.5 °C 55.5 °F /  13.1 °C 29.65 in /  1003.9 hPa East 4.2 mph /  6.8 km/h 5.8 mph /  9.3 km/h 97 % 0.04 in /  1.02 mm
09:02 56.2 °F /  13.4 °C 55.4 °F /  13 °C 29.65 in /  1003.9 hPa East 5.1 mph /  8.2 km/h 6.9 mph /  11.1 km/h 97 % 0.03 in /  0.76 mm
09:07 56.2 °F /  13.4 °C 55.4 °F /  13 °C 29.65 in /  1003.9 hPa ENE 4.1 mph /  6.6 km/h 5.8 mph /  9.3 km/h 97 % 0.03 in /  0.76 mm
09:12 56.2 °F /  13.4 °C 55.4 °F /  13 °C 29.66 in /  1004.3 hPa East 4.6 mph /  7.4 km/h 5.8 mph /  9.3 km/h 97 % 0.03 in /  0.76 mm
09:17 56.1 °F /  13.4 °C 55.3 °F /  12.9 °C 29.66 in /  1004.3 hPa East 4.5 mph /  7.2 km/h 6.0 mph /  9.7 km/h 97 % 0.02 in /  0.51 mm
09:22 56.1 °F /  13.4 °C 55.3 °F /  12.9 °C 29.65 in /  1003.9 hPa East 5.2 mph /  8.4 km/h 6.0 mph /  9.7 km/h 97 % 0.03 in /  0.76 mm
09:27 56.1 °F /  13.4 °C 55.3 °F /  12.9 °C 29.65 in /  1003.9 hPa East 5.0 mph /  8 km/h 8.1 mph /  13 km/h 97 % 0.03 in /  0.76 mm
09:32 56.1 °F /  13.4 °C 55.3 °F /  12.9 °C 29.65 in /  1003.9 hPa ENE 3.5 mph /  5.6 km/h 4.6 mph /  7.4 km/h 97 % 0.03 in /  0.76 mm
09:37 56.0 °F /  13.3 °C 55.2 °F /  12.9 °C 29.65 in /  1003.9 hPa East 4.3 mph /  6.9 km/h 6.0 mph /  9.7 km/h 97 % 0.03 in /  0.76 mm
09:42 56.0 °F /  13.3 °C 55.2 °F /  12.9 °C 29.64 in /  1003.6 hPa ENE 4.4 mph /  7.1 km/h 5.8 mph /  9.3 km/h 97 % 0.02 in /  0.51 mm
09:47 56.1 °F /  13.4 °C 55.3 °F /  12.9 °C 29.64 in /  1003.6 hPa East 3.9 mph /  6.3 km/h 5.8 mph /  9.3 km/h 97 % 0.02 in /  0.51 mm
09:52 56.1 °F /  13.4 °C 55.3 °F /  12.9 °C 29.63 in /  1003.3 hPa ENE 4.2 mph /  6.8 km/h 5.8 mph /  9.3 km/h 97 % 0.02 in /  0.51 mm
09:57 56.1 °F /  13.4 °C 55.3 °F /  12.9 °C 29.64 in /  1003.6 hPa East 3.7 mph /  6 km/h 5.0 mph /  8 km/h 97 % 0.02 in /  0.51 mm
10:02 56.2 °F /  13.4 °C 55.4 °F /  13 °C 29.63 in /  1003.3 hPa East 4.6 mph /  7.4 km/h 6.9 mph /  11.1 km/h 97 % 0.02 in /  0.51 mm
10:07 56.3 °F /  13.5 °C 55.5 °F /  13.1 °C 29.63 in /  1003.3 hPa East 3.9 mph /  6.3 km/h 5.8 mph /  9.3 km/h 97 % 0.02 in /  0.51 mm
10:13 56.3 °F /  13.5 °C 55.5 °F /  13.1 °C 29.62 in /  1002.9 hPa East 5.0 mph /  8 km/h 6.0 mph /  9.7 km/h 97 % 0.02 in /  0.51 mm
10:18 56.3 °F /  13.5 °C 55.5 °F /  13.1 °C 29.62 in /  1002.9 hPa East 5.1 mph /  8.2 km/h 6.0 mph /  9.7 km/h 97 % 0.02 in /  0.51 mm
10:23 56.3 °F /  13.5 °C 55.5 °F /  13.1 °C 29.62 in /  1002.9 hPa East 4.5 mph /  7.2 km/h 6.9 mph /  11.1 km/h 97 % 0.01 in /  0.25 mm
10:28 56.3 °F /  13.5 °C 55.5 °F /  13.1 °C 29.62 in /  1002.9 hPa East 5.2 mph /  8.4 km/h 6.9 mph /  11.1 km/h 97 % 0.00 in /  0 mm
10:33 56.3 °F /  13.5 °C 55.5 °F /  13.1 °C 29.62 in /  1002.9 hPa East 4.8 mph /  7.7 km/h 6.0 mph /  9.7 km/h 97 % 0.01 in /  0.25 mm
10:38 56.3 °F /  13.5 °C 55.5 °F /  13.1 °C 29.63 in /  1003.3 hPa East 4.9 mph /  7.9 km/h 6.0 mph /  9.7 km/h 97 % 0.03 in /  0.76 mm
10:43 56.3 °F /  13.5 °C 55.5 °F /  13.1 °C 29.62 in /  1002.9 hPa East 3.9 mph /  6.3 km/h 5.0 mph /  8 km/h 97 % 0.03 in /  0.76 mm
10:48 56.2 °F /  13.4 °C 55.4 °F /  13 °C 29.63 in /  1003.3 hPa East 4.0 mph /  6.4 km/h 5.0 mph /  8 km/h 97 % 0.03 in /  0.76 mm
10:53 56.3 °F /  13.5 °C 55.5 °F /  13.1 °C 29.63 in /  1003.3 hPa East 3.9 mph /  6.3 km/h 5.0 mph /  8 km/h 97 % 0.03 in /  0.76 mm
10:58 56.4 °F /  13.6 °C 55.8 °F /  13.2 °C 29.63 in /  1003.3 hPa East 3.9 mph /  6.3 km/h 4.6 mph /  7.4 km/h 98 % 0.05 in /  1.27 mm
11:03 56.6 °F /  13.7 °C 56.0 °F /  13.3 °C 29.62 in /  1002.9 hPa East 4.2 mph /  6.8 km/h 6.0 mph /  9.7 km/h 98 % 0.06 in /  1.52 mm
11:08 56.6 °F /  13.7 °C 56.0 °F /  13.3 °C 29.63 in /  1003.3 hPa East 3.9 mph /  6.3 km/h 4.6 mph /  7.4 km/h 98 % 0.06 in /  1.52 mm
11:13 56.6 °F /  13.7 °C 56.0 °F /  13.3 °C 29.61 in /  1002.6 hPa ENE 4.5 mph /  7.2 km/h 5.0 mph /  8 km/h 98 % 0.06 in /  1.52 mm
11:18 56.6 °F /  13.7 °C 56.0 °F /  13.3 °C 29.61 in /  1002.6 hPa ENE 2.6 mph /  4.2 km/h 5.8 mph /  9.3 km/h 98 % 0.06 in /  1.52 mm
11:23 56.7 °F /  13.7 °C 55.9 °F /  13.3 °C 29.62 in /  1002.9 hPa East 3.4 mph /  5.5 km/h 5.8 mph /  9.3 km/h 97 % 0.06 in /  1.52 mm
11:29 56.9 °F /  13.8 °C 56.1 °F /  13.4 °C 29.61 in /  1002.6 hPa East 3.3 mph /  5.3 km/h 5.0 mph /  8 km/h 97 % 0.06 in /  1.52 mm
11:34 56.8 °F /  13.8 °C 56.0 °F /  13.3 °C 29.61 in /  1002.6 hPa East 2.7 mph /  4.3 km/h 4.6 mph /  7.4 km/h 97 % 0.05 in /  1.27 mm
11:39 56.9 °F /  13.8 °C 56.1 °F /  13.4 °C 29.61 in /  1002.6 hPa East 2.5 mph /  4 km/h 4.6 mph /  7.4 km/h 97 % 0.03 in /  0.76 mm
11:44 57.0 °F /  13.9 °C 56.2 °F /  13.4 °C 29.61 in /  1002.6 hPa East 2.0 mph /  3.2 km/h 3.5 mph /  5.6 km/h 97 % 0.04 in /  1.02 mm
11:49 57.0 °F /  13.9 °C 56.4 °F /  13.6 °C 29.61 in /  1002.6 hPa East 2.2 mph /  3.5 km/h 3.5 mph /  5.6 km/h 98 % 0.04 in /  1.02 mm
11:54 57.1 °F /  13.9 °C 56.5 °F /  13.6 °C 29.61 in /  1002.6 hPa East 2.1 mph /  3.4 km/h 3.5 mph /  5.6 km/h 98 % 0.04 in /  1.02 mm
11:59 57.1 °F /  13.9 °C 56.5 °F /  13.6 °C 29.61 in /  1002.6 hPa East 2.2 mph /  3.5 km/h 3.5 mph /  5.6 km/h 98 % 0.02 in /  0.51 mm
12:04 57.3 °F /  14.1 °C 56.7 °F /  13.7 °C 29.60 in /  1002.3 hPa East 2.4 mph /  3.9 km/h 3.5 mph /  5.6 km/h 98 % 0.01 in /  0.25 mm
12:09 57.4 °F /  14.1 °C 56.8 °F /  13.8 °C 29.60 in /  1002.3 hPa East 2.4 mph /  3.9 km/h 3.5 mph /  5.6 km/h 98 % 0.01 in /  0.25 mm
12:14 57.3 °F /  14.1 °C 56.7 °F /  13.7 °C 29.61 in /  1002.6 hPa East 2.1 mph /  3.4 km/h 3.5 mph /  5.6 km/h 98 % 0.01 in /  0.25 mm
12:19 57.2 °F /  14 °C 56.6 °F /  13.7 °C 29.60 in /  1002.3 hPa East 2.6 mph /  4.2 km/h 4.6 mph /  7.4 km/h 98 % 0.01 in /  0.25 mm
12:24 57.1 °F /  13.9 °C 56.5 °F /  13.6 °C 29.60 in /  1002.3 hPa East 2.4 mph /  3.9 km/h 3.5 mph /  5.6 km/h 98 % 0.02 in /  0.51 mm
12:29 57.0 °F /  13.9 °C 56.4 °F /  13.6 °C 29.60 in /  1002.3 hPa East 2.2 mph /  3.5 km/h 3.5 mph /  5.6 km/h 98 % 0.02 in /  0.51 mm
12:34 56.9 °F /  13.8 °C 56.1 °F /  13.4 °C 29.59 in /  1001.9 hPa East 2.5 mph /  4 km/h 3.5 mph /  5.6 km/h 97 % 0.02 in /  0.51 mm
12:39 56.8 °F /  13.8 °C 56.0 °F /  13.3 °C 29.59 in /  1001.9 hPa East 2.6 mph /  4.2 km/h 4.6 mph /  7.4 km/h 97 % 0.02 in /  0.51 mm
12:44 56.8 °F /  13.8 °C 56.0 °F /  13.3 °C 29.59 in /  1001.9 hPa ENE 3.2 mph /  5.1 km/h 4.6 mph /  7.4 km/h 97 % 0.01 in /  0.25 mm
12:49 56.7 °F /  13.7 °C 55.9 °F /  13.3 °C 29.59 in /  1001.9 hPa ENE 3.4 mph /  5.5 km/h 6.9 mph /  11.1 km/h 97 % 0.01 in /  0.25 mm
12:54 56.7 °F /  13.7 °C 55.9 °F /  13.3 °C 29.59 in /  1001.9 hPa ENE 2.8 mph /  4.5 km/h 3.5 mph /  5.6 km/h 97 % 0.01 in /  0.25 mm
12:59 56.8 °F /  13.8 °C 56.0 °F /  13.3 °C 29.59 in /  1001.9 hPa ENE 2.4 mph /  3.9 km/h 3.5 mph /  5.6 km/h 97 % 0.02 in /  0.51 mm
13:04 56.9 °F /  13.8 °C 56.1 °F /  13.4 °C 29.59 in /  1001.9 hPa ENE 2.8 mph /  4.5 km/h 3.5 mph /  5.6 km/h 97 % 0.02 in /  0.51 mm
13:09 56.8 °F /  13.8 °C 56.0 °F /  13.3 °C 29.58 in /  1001.6 hPa ENE 3.5 mph /  5.6 km/h 4.6 mph /  7.4 km/h 97 % 0.02 in /  0.51 mm
13:14 56.7 °F /  13.7 °C 55.9 °F /  13.3 °C 29.58 in /  1001.6 hPa ENE 3.0 mph /  4.8 km/h 3.5 mph /  5.6 km/h 97 % 0.02 in /  0.51 mm
13:19 56.7 °F /  13.7 °C 55.9 °F /  13.3 °C 29.58 in /  1001.6 hPa ENE 2.9 mph /  4.7 km/h 3.5 mph /  5.6 km/h 97 % 0.02 in /  0.51 mm
13:24 56.6 °F /  13.7 °C 55.8 °F /  13.2 °C 29.58 in /  1001.6 hPa ENE 2.6 mph /  4.2 km/h 3.5 mph /  5.6 km/h 97 % 0.01 in /  0.25 mm
13:29 56.6 °F /  13.7 °C 55.8 °F /  13.2 °C 29.58 in /  1001.6 hPa ENE 2.1 mph /  3.4 km/h 3.5 mph /  5.6 km/h 97 % 0.01 in /  0.25 mm
13:35 56.5 °F /  13.6 °C 55.7 °F /  13.2 °C 29.58 in /  1001.6 hPa ENE 3.7 mph /  6 km/h 5.8 mph /  9.3 km/h 97 % 0.01 in /  0.25 mm
13:40 56.5 °F /  13.6 °C 55.7 °F /  13.2 °C 29.58 in /  1001.6 hPa ENE 3.8 mph /  6.1 km/h 6.9 mph /  11.1 km/h 97 % 0.01 in /  0.25 mm
13:45 56.4 °F /  13.6 °C 55.6 °F /  13.1 °C 29.58 in /  1001.6 hPa ENE 4.1 mph /  6.6 km/h 6.9 mph /  11.1 km/h 97 % 0.01 in /  0.25 mm
13:50 56.4 °F /  13.6 °C 55.6 °F /  13.1 °C 29.58 in /  1001.6 hPa ENE 3.4 mph /  5.5 km/h 6.9 mph /  11.1 km/h 97 % 0.01 in /  0.25 mm
13:55 56.4 °F /  13.6 °C 55.6 °F /  13.1 °C 29.57 in /  1001.2 hPa ENE 4.0 mph /  6.4 km/h 8.1 mph /  13 km/h 97 % 0.00 in /  0 mm
14:00 56.5 °F /  13.6 °C 55.9 °F /  13.3 °C 29.58 in /  1001.6 hPa ENE 4.7 mph /  7.6 km/h 8.1 mph /  13 km/h 98 % 0.00 in /  0 mm
14:05 56.5 °F /  13.6 °C 55.9 °F /  13.3 °C 29.57 in /  1001.2 hPa East 4.5 mph /  7.2 km/h 8.1 mph /  13 km/h 98 % 0.00 in /  0 mm
14:10 56.4 °F /  13.6 °C 55.6 °F /  13.1 °C 29.57 in /  1001.2 hPa ENE 3.5 mph /  5.6 km/h 5.8 mph /  9.3 km/h 97 % 0.00 in /  0 mm
14:15 56.4 °F /  13.6 °C 55.6 °F /  13.1 °C 29.57 in /  1001.2 hPa ENE 3.2 mph /  5.1 km/h 4.0 mph /  6.4 km/h 97 % 0.00 in /  0 mm
14:20 56.5 °F /  13.6 °C 55.9 °F /  13.3 °C 29.57 in /  1001.2 hPa ENE 3.5 mph /  5.6 km/h 4.6 mph /  7.4 km/h 98 % 0.00 in /  0 mm
14:25 56.6 °F /  13.7 °C 56.0 °F /  13.3 °C 29.56 in /  1000.9 hPa ENE 3.9 mph /  6.3 km/h 4.6 mph /  7.4 km/h 98 % 0.00 in /  0 mm
14:30 56.6 °F /  13.7 °C 56.0 °F /  13.3 °C 29.56 in /  1000.9 hPa ENE 3.5 mph /  5.6 km/h 4.6 mph /  7.4 km/h 98 % 0.00 in /  0 mm
14:35 56.6 °F /  13.7 °C 56.0 °F /  13.3 °C 29.56 in /  1000.9 hPa ENE 4.3 mph /  6.9 km/h 7.0 mph /  11.3 km/h 98 % 0.00 in /  0 mm
14:40 56.7 °F /  13.7 °C 56.1 °F /  13.4 °C 29.56 in /  1000.9 hPa ENE 3.3 mph /  5.3 km/h 5.8 mph /  9.3 km/h 98 % 0.00 in /  0 mm
14:45 56.7 °F /  13.7 °C 56.1 °F /  13.4 °C 29.56 in /  1000.9 hPa ENE 3.4 mph /  5.5 km/h 5.8 mph /  9.3 km/h 98 % 0.00 in /  0 mm
14:51 56.7 °F /  13.7 °C 55.9 °F /  13.3 °C 29.56 in /  1000.9 hPa East 3.4 mph /  5.5 km/h 6.9 mph /  11.1 km/h 97 % 0.01 in /  0.25 mm
14:56 56.9 °F /  13.8 °C 56.3 °F /  13.5 °C 29.56 in /  1000.9 hPa ENE 3.0 mph /  4.8 km/h 5.0 mph /  8 km/h 98 % 0.00 in /  0 mm
15:01 56.9 °F /  13.8 °C 56.3 °F /  13.5 °C 29.56 in /  1000.9 hPa ENE 4.0 mph /  6.4 km/h 4.0 mph /  6.4 km/h 98 % 0.01 in /  0.25 mm
15:06 56.9 °F /  13.8 °C 56.1 °F /  13.4 °C 29.56 in /  1000.9 hPa ENE 3.0 mph /  4.8 km/h 7.0 mph /  11.3 km/h 97 % 0.00 in /  0 mm
15:11 56.8 °F /  13.8 °C 56.0 °F /  13.3 °C 29.55 in /  1000.6 hPa ENE 3.0 mph /  4.8 km/h 8.0 mph /  12.9 km/h 97 % 0.00 in /  0 mm
15:16 56.8 °F /  13.8 °C 56.0 °F /  13.3 °C 29.55 in /  1000.6 hPa ENE 3.0 mph /  4.8 km/h 5.0 mph /  8 km/h 97 % 0.00 in /  0 mm
15:21 56.7 °F /  13.7 °C 55.9 °F /  13.3 °C 29.55 in /  1000.6 hPa ENE 2.0 mph /  3.2 km/h 5.0 mph /  8 km/h 97 % 0.00 in /  0 mm
15:26 56.8 °F /  13.8 °C 56.0 °F /  13.3 °C 29.55 in /  1000.6 hPa ENE 2.0 mph /  3.2 km/h 5.0 mph /  8 km/h 97 % 0.00 in /  0 mm
15:31 56.8 °F /  13.8 °C 56.0 °F /  13.3 °C 29.55 in /  1000.6 hPa East 2.0 mph /  3.2 km/h 4.6 mph /  7.4 km/h 97 % 0.01 in /  0.25 mm
15:35 56.9 °F /  13.8 °C 56.3 °F /  13.5 °C 29.54 in /  1000.2 hPa East 2.9 mph /  4.7 km/h 6.0 mph /  9.7 km/h 98 % 0.01 in /  0.25 mm
15:41 56.9 °F /  13.8 °C 56.3 °F /  13.5 °C 29.54 in /  1000.2 hPa ENE 3.8 mph /  6.1 km/h 4.0 mph /  6.4 km/h 98 % 0.01 in /  0.25 mm
15:46 57.1 °F /  13.9 °C 56.5 °F /  13.6 °C 29.53 in /  999.9 hPa ENE 3.0 mph /  4.8 km/h 5.0 mph /  8 km/h 98 % 0.00 in /  0 mm
15:51 57.0 °F /  13.9 °C 56.4 °F /  13.6 °C 29.54 in /  1000.2 hPa ENE 3.0 mph /  4.8 km/h 6.0 mph /  9.7 km/h 98 % 0.00 in /  0 mm
15:56 57.1 °F /  13.9 °C 56.5 °F /  13.6 °C 29.54 in /  1000.2 hPa East 3.0 mph /  4.8 km/h 6.0 mph /  9.7 km/h 98 % 0.00 in /  0 mm
16:01 57.0 °F /  13.9 °C 56.4 °F /  13.6 °C 29.54 in /  1000.2 hPa ENE 2.6 mph /  4.2 km/h 3.5 mph /  5.6 km/h 98 % 0.00 in /  0 mm
16:06 56.9 °F /  13.8 °C 56.1 °F /  13.4 °C 29.53 in /  999.9 hPa ENE 2.8 mph /  4.5 km/h 4.6 mph /  7.4 km/h 97 % 0.00 in /  0 mm
16:11 56.8 °F /  13.8 °C 56.0 °F /  13.3 °C 29.54 in /  1000.2 hPa East 2.7 mph /  4.3 km/h 5.8 mph /  9.3 km/h 97 % 0.00 in /  0 mm
16:16 56.9 °F /  13.8 °C 56.3 °F /  13.5 °C 29.53 in /  999.9 hPa ENE 2.6 mph /  4.2 km/h 4.6 mph /  7.4 km/h 98 % 0.00 in /  0 mm
16:21 56.9 °F /  13.8 °C 56.3 °F /  13.5 °C 29.54 in /  1000.2 hPa ENE 2.2 mph /  3.5 km/h 3.5 mph /  5.6 km/h 98 % 0.00 in /  0 mm
16:26 56.9 °F /  13.8 °C 56.3 °F /  13.5 °C 29.54 in /  1000.2 hPa ENE 2.6 mph /  4.2 km/h 3.5 mph /  5.6 km/h 98 % 0.00 in /  0 mm
16:31 56.7 °F /  13.7 °C 55.9 °F /  13.3 °C 29.54 in /  1000.2 hPa ENE 3.1 mph /  5 km/h 6.9 mph /  11.1 km/h 97 % 0.00 in /  0 mm
16:36 56.6 °F /  13.7 °C 56.0 °F /  13.3 °C 29.53 in /  999.9 hPa ENE 2.8 mph /  4.5 km/h 4.6 mph /  7.4 km/h 98 % 0.00 in /  0 mm
16:41 56.6 °F /  13.7 °C 56.0 °F /  13.3 °C 29.53 in /  999.9 hPa ENE 2.7 mph /  4.3 km/h 4.6 mph /  7.4 km/h 98 % 0.00 in /  0 mm
16:46 56.5 °F /  13.6 °C 55.9 °F /  13.3 °C 29.53 in /  999.9 hPa ENE 3.1 mph /  5 km/h 4.6 mph /  7.4 km/h 98 % 0.00 in /  0 mm
16:51 56.4 °F /  13.6 °C 55.8 °F /  13.2 °C 29.53 in /  999.9 hPa East 3.0 mph /  4.8 km/h 5.0 mph /  8 km/h 98 % 0.00 in /  0 mm
16:56 56.4 °F /  13.6 °C 55.8 °F /  13.2 °C 29.53 in /  999.9 hPa ENE 2.7 mph /  4.3 km/h 3.5 mph /  5.6 km/h 98 % 0.00 in /  0 mm
17:01 56.4 °F /  13.6 °C 55.6 °F /  13.1 °C 29.52 in /  999.5 hPa East 3.7 mph /  6 km/h 6.0 mph /  9.7 km/h 97 % 0.00 in /  0 mm
17:06 56.3 °F /  13.5 °C 55.5 °F /  13.1 °C 29.50 in /  998.9 hPa ENE 4.7 mph /  7.6 km/h 8.1 mph /  13 km/h 97 % 0.00 in /  0 mm
17:11 56.2 °F /  13.4 °C 55.4 °F /  13 °C 29.49 in /  998.5 hPa ENE 4.8 mph /  7.7 km/h 9.2 mph /  14.8 km/h 97 % 0.00 in /  0 mm
17:16 56.2 °F /  13.4 °C 55.4 °F /  13 °C 29.49 in /  998.5 hPa ENE 4.6 mph /  7.4 km/h 10.4 mph /  16.7 km/h 97 % 0.00 in /  0 mm
17:21 56.2 °F /  13.4 °C 55.4 °F /  13 °C 29.51 in /  999.2 hPa East 3.0 mph /  4.8 km/h 3.5 mph /  5.6 km/h 97 % 0.00 in /  0 mm
17:26 56.3 °F /  13.5 °C 55.7 °F /  13.2 °C 29.52 in /  999.5 hPa East 3.1 mph /  5 km/h 5.0 mph /  8 km/h 98 % 0.00 in /  0 mm
17:31 56.5 °F /  13.6 °C 55.9 °F /  13.3 °C 29.52 in /  999.5 hPa East 3.4 mph /  5.5 km/h 5.0 mph /  8 km/h 98 % 0.00 in /  0 mm
17:36 56.6 °F /  13.7 °C 56.0 °F /  13.3 °C 29.53 in /  999.9 hPa East 3.3 mph /  5.3 km/h 4.6 mph /  7.4 km/h 98 % 0.00 in /  0 mm
17:41 56.7 °F /  13.7 °C 56.1 °F /  13.4 °C 29.53 in /  999.9 hPa East 2.8 mph /  4.5 km/h 5.8 mph /  9.3 km/h 98 % 0.00 in /  0 mm
17:46 56.7 °F /  13.7 °C 56.1 °F /  13.4 °C 29.54 in /  1000.2 hPa East 1.9 mph /  3.1 km/h 3.5 mph /  5.6 km/h 98 % 0.00 in /  0 mm
17:51 56.9 °F /  13.8 °C 56.3 °F /  13.5 °C 29.53 in /  999.9 hPa East 2.2 mph /  3.5 km/h 3.5 mph /  5.6 km/h 98 % 0.00 in /  0 mm
17:56 57.0 °F /  13.9 °C 56.4 °F /  13.6 °C 29.53 in /  999.9 hPa East 2.0 mph /  3.2 km/h 3.5 mph /  5.6 km/h 98 % 0.00 in /  0 mm
18:01 57.1 °F /  13.9 °C 56.5 °F /  13.6 °C 29.54 in /  1000.2 hPa East 2.0 mph /  3.2 km/h 3.5 mph /  5.6 km/h 98 % 0.00 in /  0 mm
18:07 57.1 °F /  13.9 °C 56.5 °F /  13.6 °C 29.52 in /  999.5 hPa ENE 2.0 mph /  3.2 km/h 4.6 mph /  7.4 km/h 98 % 0.00 in /  0 mm
18:12 57.0 °F /  13.9 °C 56.4 °F /  13.6 °C 29.52 in /  999.5 hPa ENE 1.9 mph /  3.1 km/h 8.1 mph /  13 km/h 98 % 0.00 in /  0 mm
18:17 57.0 °F /  13.9 °C 56.4 °F /  13.6 °C 29.52 in /  999.5 hPa ENE 3.1 mph /  5 km/h 4.6 mph /  7.4 km/h 98 % 0.00 in /  0 mm
18:22 56.9 °F /  13.8 °C 56.3 °F /  13.5 °C 29.53 in /  999.9 hPa ENE 2.1 mph /  3.4 km/h 4.0 mph /  6.4 km/h 98 % 0.00 in /  0 mm
18:27 56.8 °F /  13.8 °C 56.2 °F /  13.4 °C 29.52 in /  999.5 hPa ENE 2.5 mph /  4 km/h 3.5 mph /  5.6 km/h 98 % 0.00 in /  0 mm
18:32 56.8 °F /  13.8 °C 56.2 °F /  13.4 °C 29.51 in /  999.2 hPa ENE 2.7 mph /  4.3 km/h 4.0 mph /  6.4 km/h 98 % 0.00 in /  0 mm
18:37 56.7 °F /  13.7 °C 56.1 °F /  13.4 °C 29.51 in /  999.2 hPa ENE 4.4 mph /  7.1 km/h 6.9 mph /  11.1 km/h 98 % 0.00 in /  0 mm
18:42 56.6 °F /  13.7 °C 56.0 °F /  13.3 °C 29.51 in /  999.2 hPa East 2.9 mph /  4.7 km/h 4.6 mph /  7.4 km/h 98 % 0.00 in /  0 mm
18:47 56.5 °F /  13.6 °C 55.9 °F /  13.3 °C 29.50 in /  998.9 hPa ENE 4.9 mph /  7.9 km/h 8.1 mph /  13 km/h 98 % 0.00 in /  0 mm
18:52 56.4 °F /  13.6 °C 55.8 °F /  13.2 °C 29.51 in /  999.2 hPa ENE 3.0 mph /  4.8 km/h 4.0 mph /  6.4 km/h 98 % 0.00 in /  0 mm
18:57 56.4 °F /  13.6 °C 55.8 °F /  13.2 °C 29.51 in /  999.2 hPa ENE 3.1 mph /  5 km/h 4.6 mph /  7.4 km/h 98 % 0.00 in /  0 mm
19:02 56.3 °F /  13.5 °C 55.7 °F /  13.2 °C 29.50 in /  998.9 hPa NE 4.5 mph /  7.2 km/h 8.0 mph /  12.9 km/h 98 % 0.00 in /  0 mm
19:07 56.3 °F /  13.5 °C 55.7 °F /  13.2 °C 29.51 in /  999.2 hPa NE 4.8 mph /  7.7 km/h 9.2 mph /  14.8 km/h 98 % 0.00 in /  0 mm
19:12 56.3 °F /  13.5 °C 55.7 °F /  13.2 °C 29.51 in /  999.2 hPa ENE 2.7 mph /  4.3 km/h 9.2 mph /  14.8 km/h 98 % 0.00 in /  0 mm
19:17 56.3 °F /  13.5 °C 55.7 °F /  13.2 °C 29.51 in /  999.2 hPa ENE 4.6 mph /  7.4 km/h 7.0 mph /  11.3 km/h 98 % 0.00 in /  0 mm
19:22 56.3 °F /  13.5 °C 55.7 °F /  13.2 °C 29.52 in /  999.5 hPa ENE 2.4 mph /  3.9 km/h 4.6 mph /  7.4 km/h 98 % 0.00 in /  0 mm
19:27 56.3 °F /  13.5 °C 55.7 °F /  13.2 °C 29.53 in /  999.9 hPa East 3.5 mph /  5.6 km/h 5.0 mph /  8 km/h 98 % 0.00 in /  0 mm
19:32 56.3 °F /  13.5 °C 55.7 °F /  13.2 °C 29.52 in /  999.5 hPa ENE 3.1 mph /  5 km/h 4.0 mph /  6.4 km/h 98 % 0.00 in /  0 mm
19:37 56.2 °F /  13.4 °C 55.6 °F /  13.1 °C 29.52 in /  999.5 hPa ENE 2.9 mph /  4.7 km/h 5.8 mph /  9.3 km/h 98 % 0.00 in /  0 mm
19:43 56.2 °F /  13.4 °C 55.6 °F /  13.1 °C 29.51 in /  999.2 hPa ENE 3.6 mph /  5.8 km/h 6.9 mph /  11.1 km/h 98 % 0.00 in /  0 mm
19:48 56.1 °F /  13.4 °C 55.5 °F /  13.1 °C 29.51 in /  999.2 hPa ENE 3.1 mph /  5 km/h 4.6 mph /  7.4 km/h 98 % 0.00 in /  0 mm
19:53 56.1 °F /  13.4 °C 55.5 °F /  13.1 °C 29.52 in /  999.5 hPa East 2.5 mph /  4 km/h 4.6 mph /  7.4 km/h 98 % 0.00 in /  0 mm
19:58 56.1 °F /  13.4 °C 55.5 °F /  13.1 °C 29.52 in /  999.5 hPa East 3.4 mph /  5.5 km/h 5.8 mph /  9.3 km/h 98 % 0.00 in /  0 mm
20:03 56.1 °F /  13.4 °C 55.5 °F /  13.1 °C 29.51 in /  999.2 hPa East 3.7 mph /  6 km/h 4.6 mph /  7.4 km/h 98 % 0.00 in /  0 mm
20:08 56.1 °F /  13.4 °C 55.5 °F /  13.1 °C 29.52 in /  999.5 hPa ENE 2.9 mph /  4.7 km/h 8.1 mph /  13 km/h 98 % 0.00 in /  0 mm
20:13 56.1 °F /  13.4 °C 55.5 °F /  13.1 °C 29.52 in /  999.5 hPa ENE 3.1 mph /  5 km/h 4.6 mph /  7.4 km/h 98 % 0.00 in /  0 mm
20:18 56.1 °F /  13.4 °C 55.5 °F /  13.1 °C 29.52 in /  999.5 hPa ENE 2.5 mph /  4 km/h 4.0 mph /  6.4 km/h 98 % 0.00 in /  0 mm
20:23 56.1 °F /  13.4 °C 55.5 °F /  13.1 °C 29.51 in /  999.2 hPa East 3.2 mph /  5.1 km/h 6.9 mph /  11.1 km/h 98 % 0.00 in /  0 mm
20:28 56.0 °F /  13.3 °C 55.4 °F /  13 °C 29.50 in /  998.9 hPa ENE 3.4 mph /  5.5 km/h 5.0 mph /  8 km/h 98 % 0.00 in /  0 mm
20:33 56.0 °F /  13.3 °C 55.4 °F /  13 °C 29.50 in /  998.9 hPa ENE 3.8 mph /  6.1 km/h 4.6 mph /  7.4 km/h 98 % 0.00 in /  0 mm
20:38 56.0 °F /  13.3 °C 55.4 °F /  13 °C 29.49 in /  998.5 hPa East 3.4 mph /  5.5 km/h 6.0 mph /  9.7 km/h 98 % 0.00 in /  0 mm
20:43 56.0 °F /  13.3 °C 55.4 °F /  13 °C 29.49 in /  998.5 hPa ENE 3.9 mph /  6.3 km/h 4.6 mph /  7.4 km/h 98 % 0.00 in /  0 mm
20:48 55.9 °F /  13.3 °C 55.3 °F /  12.9 °C 29.49 in /  998.5 hPa ENE 3.8 mph /  6.1 km/h 9.2 mph /  14.8 km/h 98 % 0.00 in /  0 mm
20:53 56.0 °F /  13.3 °C 55.4 °F /  13 °C 29.49 in /  998.5 hPa ENE 3.8 mph /  6.1 km/h 7.0 mph /  11.3 km/h 98 % 0.00 in /  0 mm
20:59 55.9 °F /  13.3 °C 55.3 °F /  12.9 °C 29.48 in /  998.2 hPa ENE 4.4 mph /  7.1 km/h 5.8 mph /  9.3 km/h 98 % 0.01 in /  0.25 mm
21:04 55.9 °F /  13.3 °C 55.3 °F /  12.9 °C 29.48 in /  998.2 hPa ENE 4.6 mph /  7.4 km/h 4.6 mph /  7.4 km/h 98 % 0.01 in /  0.25 mm
21:09 55.9 °F /  13.3 °C 55.3 °F /  12.9 °C 29.49 in /  998.5 hPa ENE 4.7 mph /  7.6 km/h 9.2 mph /  14.8 km/h 98 % 0.01 in /  0.25 mm
21:14 55.9 °F /  13.3 °C 55.3 °F /  12.9 °C 29.49 in /  998.5 hPa ENE 6.0 mph /  9.7 km/h 12.7 mph /  20.4 km/h 98 % 0.01 in /  0.25 mm
21:19 56.0 °F /  13.3 °C 55.4 °F /  13 °C 29.48 in /  998.2 hPa ENE 5.3 mph /  8.5 km/h 12.7 mph /  20.4 km/h 98 % 0.01 in /  0.25 mm
21:24 56.0 °F /  13.3 °C 55.4 °F /  13 °C 29.49 in /  998.5 hPa ENE 4.1 mph /  6.6 km/h 8.1 mph /  13 km/h 98 % 0.01 in /  0.25 mm
21:29 56.1 °F /  13.4 °C 55.5 °F /  13.1 °C 29.49 in /  998.5 hPa East 6.5 mph /  10.5 km/h 9.2 mph /  14.8 km/h 98 % 0.01 in /  0.25 mm
21:34 56.2 °F /  13.4 °C 55.6 °F /  13.1 °C 29.50 in /  998.9 hPa East 4.4 mph /  7.1 km/h 6.0 mph /  9.7 km/h 98 % 0.02 in /  0.51 mm
21:39 56.2 °F /  13.4 °C 55.6 °F /  13.1 °C 29.50 in /  998.9 hPa East 4.4 mph /  7.1 km/h 6.0 mph /  9.7 km/h 98 % 0.02 in /  0.51 mm
21:44 56.1 °F /  13.4 °C 55.5 °F /  13.1 °C 29.49 in /  998.5 hPa East 3.3 mph /  5.3 km/h 4.6 mph /  7.4 km/h 98 % 0.02 in /  0.51 mm
21:49 56.1 °F /  13.4 °C 55.5 °F /  13.1 °C 29.49 in /  998.5 hPa ENE 3.3 mph /  5.3 km/h 4.6 mph /  7.4 km/h 98 % 0.02 in /  0.51 mm
21:54 56.1 °F /  13.4 °C 55.5 °F /  13.1 °C 29.49 in /  998.5 hPa ENE 2.6 mph /  4.2 km/h 3.5 mph /  5.6 km/h 98 % 0.02 in /  0.51 mm
21:59 56.0 °F /  13.3 °C 55.4 °F /  13 °C 29.49 in /  998.5 hPa East 1.9 mph /  3.1 km/h 4.6 mph /  7.4 km/h 98 % 0.01 in /  0.25 mm
22:04 56.1 °F /  13.4 °C 55.5 °F /  13.1 °C 29.49 in /  998.5 hPa ENE 3.4 mph /  5.5 km/h 4.0 mph /  6.4 km/h 98 % 0.01 in /  0.25 mm
22:09 56.0 °F /  13.3 °C 55.4 °F /  13 °C 29.49 in /  998.5 hPa ENE 2.6 mph /  4.2 km/h 5.8 mph /  9.3 km/h 98 % 0.01 in /  0.25 mm
22:14 56.0 °F /  13.3 °C 55.4 °F /  13 °C 29.48 in /  998.2 hPa ENE 2.6 mph /  4.2 km/h 3.5 mph /  5.6 km/h 98 % 0.02 in /  0.51 mm
22:19 56.0 °F /  13.3 °C 55.4 °F /  13 °C 29.48 in /  998.2 hPa ENE 2.8 mph /  4.5 km/h 4.0 mph /  6.4 km/h 98 % 0.02 in /  0.51 mm
22:24 56.0 °F /  13.3 °C 55.4 °F /  13 °C 29.48 in /  998.2 hPa ENE 3.4 mph /  5.5 km/h 4.0 mph /  6.4 km/h 98 % 0.02 in /  0.51 mm
22:29 56.0 °F /  13.3 °C 55.4 °F /  13 °C 29.48 in /  998.2 hPa ENE 2.7 mph /  4.3 km/h 3.5 mph /  5.6 km/h 98 % 0.02 in /  0.51 mm
22:34 56.0 °F /  13.3 °C 55.4 °F /  13 °C 29.48 in /  998.2 hPa East 3.8 mph /  6.1 km/h 5.0 mph /  8 km/h 98 % 0.03 in /  0.76 mm
22:39 56.0 °F /  13.3 °C 55.4 °F /  13 °C 29.48 in /  998.2 hPa East 5.5 mph /  8.9 km/h 6.9 mph /  11.1 km/h 98 % 0.04 in /  1.02 mm
22:44 55.9 °F /  13.3 °C 55.3 °F /  12.9 °C 29.47 in /  997.9 hPa ENE 5.6 mph /  9 km/h 9.2 mph /  14.8 km/h 98 % 0.07 in /  1.78 mm
22:49 55.9 °F /  13.3 °C 55.3 °F /  12.9 °C 29.47 in /  997.9 hPa East 3.2 mph /  5.1 km/h 4.6 mph /  7.4 km/h 98 % 0.08 in /  2.03 mm
22:54 55.9 °F /  13.3 °C 55.3 °F /  12.9 °C 29.46 in /  997.5 hPa East 5.9 mph /  9.5 km/h 8.1 mph /  13 km/h 98 % 0.09 in /  2.29 mm
23:00 55.8 °F /  13.2 °C 55.2 °F /  12.9 °C 29.46 in /  997.5 hPa East 3.8 mph /  6.1 km/h 7.0 mph /  11.3 km/h 98 % 0.09 in /  2.29 mm
23:05 55.8 °F /  13.2 °C 55.2 °F /  12.9 °C 29.47 in /  997.9 hPa East 3.4 mph /  5.5 km/h 4.6 mph /  7.4 km/h 98 % 0.10 in /  2.54 mm
23:10 55.8 °F /  13.2 °C 55.2 °F /  12.9 °C 29.47 in /  997.9 hPa East 2.9 mph /  4.7 km/h 3.5 mph /  5.6 km/h 98 % 0.10 in /  2.54 mm
23:15 55.8 °F /  13.2 °C 55.2 °F /  12.9 °C 29.46 in /  997.5 hPa ENE 5.3 mph /  8.5 km/h 8.1 mph /  13 km/h 98 % 0.09 in /  2.29 mm
23:20 55.7 °F /  13.2 °C 55.1 °F /  12.8 °C 29.47 in /  997.9 hPa ENE 2.7 mph /  4.3 km/h 4.6 mph /  7.4 km/h 98 % 0.09 in /  2.29 mm
23:25 55.7 °F /  13.2 °C 55.1 °F /  12.8 °C 29.47 in /  997.9 hPa East 4.5 mph /  7.2 km/h 5.8 mph /  9.3 km/h 98 % 0.09 in /  2.29 mm
23:30 55.7 °F /  13.2 °C 55.1 °F /  12.8 °C 29.47 in /  997.9 hPa East 3.9 mph /  6.3 km/h 5.0 mph /  8 km/h 98 % 0.09 in /  2.29 mm
23:35 55.8 °F /  13.2 °C 55.2 °F /  12.9 °C 29.47 in /  997.9 hPa East 2.2 mph /  3.5 km/h 4.6 mph /  7.4 km/h 98 % 0.07 in /  1.78 mm
23:40 55.8 °F /  13.2 °C 55.2 °F /  12.9 °C 29.48 in /  998.2 hPa East 3.8 mph /  6.1 km/h 5.0 mph /  8 km/h 98 % 0.06 in /  1.52 mm
23:45 55.8 °F /  13.2 °C 55.2 °F /  12.9 °C 29.48 in /  998.2 hPa East 2.8 mph /  4.5 km/h 4.6 mph /  7.4 km/h 98 % 0.08 in /  2.03 mm
23:50 55.8 °F /  13.2 °C 55.2 °F /  12.9 °C 29.47 in /  997.9 hPa ENE 2.5 mph /  4 km/h 4.0 mph /  6.4 km/h 98 % 0.12 in /  3.05 mm
23:55 55.8 °F /  13.2 °C 55.2 °F /  12.9 °C 29.48 in /  998.2 hPa East 1.5 mph /  2.4 km/h 3.5 mph /  5.6 km/h 98 % 0.14 in /  3.56 mm
Crab Meadow Weather
Compliments of Weather Underground - 3 mb

Script developed by  Jim McMurry - jmcmurry@mwt.net Adapted for the template by  Wim van der Kuil - Leuven-Template.eu

Recycling: In 2006, a record 53.4 percent of the paper consumed in the U.S. was recovered for recycling. Americans recovered an extraordinary 53.5 million tons, averaging 360 pounds per person.